Regional Weather Roundup
Issued by NWS Upton, NY

Home | Current Version | Previous Version | Text Only | Print | Product List | Glossary On
Versions: 1 2 3 4 5 6 7 8 9 10 11 12 13 14 15 16 17 18 19 20 21 22 23 24 25 26 27 28 29 30 31 32 33 34 35 36 37 38 39 40 41 42 43 44 45 46 47 48 49 50
000
ASUS41 KOKX 251509
RWROKX

REGIONAL WEATHER ROUNDUP
NATIONAL WEATHER SERVICE NEW YORK NY
1100 AM EDT MON SEP 25 2017

NOTE: "FAIR" INDICATES FEW OR NO CLOUDS BELOW 12,000 FEET WITH NO
SIGNIFICANT WEATHER AND/OR OBSTRUCTIONS TO VISIBILITY.

NYZ071-072-176-178-NJZ106-104-251600-
NEW YORK CITY METRO AREA

CITY           SKY/WX    TMP DP  RH WIND       PRES   REMARKS
Central Park   SUNNY     81  65  58 NE8       30.10F
Bronx Bot Gard   N/A     81  64  57 E2        30.11S
LaGuardia APRT SUNNY     79  66  64 NE8       30.07S
Kennedy INTL   SUNNY     80  63  55 VRB3      30.09S
Breezy Point     N/A     73 N/A N/A SE3         N/A
Newark/Liberty SUNNY     83  66  56 E5        30.07S
Teterboro      SUNNY     83  68  60 E7        30.06F
$$

NYZ177-179-078>081-251600-
LONG ISLAND NEW YORK

CITY           SKY/WX    TMP DP  RH WIND       PRES   REMARKS
Jones Beach      N/A     77 N/A N/A N1          N/A
Matinecock PT    N/A     72 N/A N/A NE7         N/A
Farmingdale    SUNNY     79  57  46 CALM      30.08F
MacArthur/ISP  SUNNY     79  59  50 S3        30.07F
Shirley        SUNNY     81  62  52 CALM      30.08F
Mt Sinai Harb    N/A     75 N/A N/A N3          N/A
Westhampton    SUNNY     79  59  50 VRB3      30.10F
East Hampton   FAIR      75  67  75 CALM      30.07F
Montauk          N/A     74  68  81 SE5       30.10S
$$

NYZ052-065-067-251600-
HUDSON VALLEY

CITY           SKY/WX    TMP DP  RH WIND       PRES   REMARKS
White Plains   SUNNY     81  68  64 E5        30.09F
Larchmont Harb   N/A     72 N/A N/A N7          N/A
Croton On Huds   N/A     77 N/A N/A MISG        N/A
Newburgh       SUNNY     81  72  74 CALM      30.12S
Montgomery     SUNNY     80  69  69 NE5       30.10S
Poughkeepsie   SUNNY     80  68  66 CALM      30.08F
Albany         MOSUNNY   80  69  69 NW6       30.10F
$$

NJZ001-105-106-008-010-013-015-019>022-104-251600-
NEW JERSEY

CITY           SKY/WX    TMP DP  RH WIND       PRES   REMARKS
Newark/Liberty SUNNY     83  66  56 E5        30.07S
Teterboro      SUNNY     83  68  60 E7        30.06F
Caldwell       SUNNY     82  70  66 VRB7      30.08F
Somerville     NOT AVBL
Linden         FAIR      82  64  54 CALM      30.07F
Perth Amboy      N/A     73 N/A N/A SE7         N/A
Sussex         SUNNY     80  69  69 NE8       30.10F
Andover          N/A     81  70  69 VRB5      30.10F
Trenton        SUNNY     82  68  62 NE5       30.07S
Millville      SUNNY     83  62  49 NE5       30.06S
Atlantic City  SUNNY     81  64  56 VRB6      30.06F
Wrightstown    SUNNY     81  64  56 CALM      30.04F
Toms River     SUNNY     82  63  52 CALM      30.07F
Belmar         SUNNY     83  65  54 NW3       30.08F
$$

PAZ047>061-062-071-251600-
EASTERN PENNSYLVANIA

CITY           SKY/WX    TMP DP  RH WIND       PRES   REMARKS
Philadelphia   MOSUNNY   82  66  58 CALM      30.06F
Allentown      SUNNY     82  68  62 E7        30.09F
Scranton       SUNNY     79  66  64 CALM      30.13S
$$

CTZ002-004>006-009-010-012-RIZ004-006-007-MAZ004-011-015-251600-
SOUTHERN NEW ENGLAND
 IN CT

CITY           SKY/WX    TMP DP  RH WIND       PRES   REMARKS
Bradley INTL   SUNNY     83  70  64 CALM      30.09S
Hartford       SUNNY     80  69  69 CALM      30.08S
Danbury        SUNNY     82  69  64 E6        30.11F
Wtrbury/Oxford SUNNY     81  69  67 SE5       30.12S
Norwalk Harbor   N/A     73 N/A N/A SE7         N/A
Bridgeport     SUNNY     76  67  73 SE6       30.08F
Meriden        SUNNY     82  68  62 VRB3      30.08F
New Haven      SUNNY     77  67  71 S6        30.08F
Chester        FAIR      82  66  57 VRB5      30.10S
Groton         SUNNY     72  65  78 S3        30.08S
Wilimantic     SUNNY     82  69  64 VRB5      30.08F

 IN RI

CITY           SKY/WX    TMP DP  RH WIND       PRES   REMARKS
Providence     SUNNY     80  66  62 VRB3      30.08F
Block Island   SUNNY     72  67  84 E5        30.09F
Westerly       SUNNY     74  66  76 S5        30.09F
 IN MA

CITY           SKY/WX    TMP DP  RH WIND       PRES   REMARKS
Boston         SUNNY     78  66  66 VRB5      30.09S
Worcester      SUNNY     79  66  64 VRB3      30.13S
Westfield      SUNNY     84  69  60 NE5       30.09S
Provincetown   SUNNY     76  67  73 NE8       30.09F
Nantucket      CLOUDY    72  70  93 NE9       30.08F
$$

ANZ330-335-338-340-345-350-353-355-251600-
COASTAL MARINE OBSERVATIONS


STATION/POSITION TIME  SKY/WX   TEMP    WIND        PRES    VSBY  WAVE
                                AIR SEA DIR/SP/G                  HT/PER
                 (UTC)          (F)     (DEG/KT/KT) (MB)    (MI)  (FT/S)
NY HARB ENTRANCE 1350            72 72  190/  2/  4 1017.8          4/12
20 S FIRE ISLAND 1350            69 68  150/  2/  4 1018.6          5/12
GREAT SOUTH BAY  1415            75 73     CALM       N/A
23 SSW MONTAUK P 1350            66 65              1019.2          6/15
15 E BARNEGAT LI 1400               71                N/A           5/11
HUDSON CANYON    1450            65 69   40/  6/  8 1017.3          8/12
KINGS POINT      1430            74 72   50/  6/  7 1019.4
EXECUTION ROCKS  1445            76      40/  6/  8   N/A
WESTERN LI SOUND NOT AVBL
CENTRAL LI SOUND 1415            73      CALM  /  2   N/A           0
EASTERN LI SOUND NOT AVBL
ROBBINS REEF     1430            76     180/  2/  3 1019.1
$$


>>>>>>>>>>>>>>>>>>>>>>>>>>>> KEY <<<<<<<<<<<<<<<<<<<<<<<<<<<
>                                                          <
>     SKY/WX - Sky Condition/Present Weather               <
>     TMP    - Temperature in Fahrenheit                   <
>     DP     - Dew Point in Fahrenheit                     <
>     RH     - Relative Humidity in Percent                <
>     WIND   - Direction (from) and Speed in MPH           <
>     PRES   - Mean Sea Level Pressure (inches of Hg)      <
>     WCI    - Wind Chill Index                            <
>     VSB    - VISIBILITY IN MILES                         <
>     HX     - HEAT INDEX                                  <
>     TC     - TEMPERATURE IN CELSIUS                      <
>     VRB    - VARIABLE WIND DIRECTION                     <
>                                                          <
>>>>>>>>>>>>>>>>>>>>>>>>>>>> KEY <<<<<<<<<<<<<<<<<<<<<<<<<<<



USA.gov is the U.S. government's official web portal to all federal, state and local government web resources and services.